weather.gov     
National Weather Service

Regional Weather Roundup
NWS Homepage
This page is being discontinued on March 12, 2014.
The same data is available at this site. Please update your bookmarks.
Thank you, and we apologize for the inconvenience.
Please send an email to SR-SRH.Webmaster@noaa.gov with any concerns.


Current Version
Previous Version:    01  02  03  04  05  06  07  08  09  10  11  12  13  14  15  16  17  18  19  20  21  22  23  24  25  26  27  28  29  30  
   31  32  33  34  35  36  37  38  39  40  41  42  43  44  45  46  47  48  49  50  51  52  53  
[Printable]
810
ASUS43 KGRB 212010
RWRGRB

NORTH-CENTRAL AND NORTHEAST WISCONSIN REGIONAL WEATHER ROUNDUP
NATIONAL WEATHER SERVICE GREEN BAY WI
200 PM CST SUN DEC 21 2014

WIZ005-009-010>012-018-019-212100-
NORTH CENTRAL WISCONSIN

CITY           SKY/WX    TMP DP  RH WIND       PRES   REMARKS
IRONWOOD       CLOUDY    34  30  86 S10G18    29.81F
MANITOWISH WTR LGT SNOW  31  31 100 S10G16    29.85F
ARBOR VITAE    LGT SNOW  32  30  93 S12       29.87F
EAGLE RIVER    LGT SNOW  31  30  97 S7G16     29.88F
LAND O LAKES   LGT SNOW  32  30  94 S7        29.89S
RHINELANDER    LGT SNOW  30  29  96 S7        29.89F FOG
PHILLIPS       LGT SNOW  32  30  94 S10G16    29.84F
ANTIGO         FOG       30  30 100 S10       29.93F VSB 1/2
TOMAHAWK       LGT SNOW  31  30  95 CALM      29.89F VSB 3/4
MERRILL        LGT SNOW  32  32 100 S6        29.90F
$$

WIZ013-073-212100-
NORTHEAST WISCONSIN

CITY           SKY/WX    TMP DP  RH WIND       PRES   REMARKS
IRON MOUNTAIN  CLOUDY    31  28  89 SE10      29.96F FOG
MARINETTE      CLOUDY    36  30  80 SW8       30.01F
OCONTO         CLOUDY    35  32  91 S7        30.02F
$$

WIZ017-030-035>037-045-212100-
CENTRAL WISCONSIN

CITY           SKY/WX    TMP DP  RH WIND       PRES   REMARKS
MEDFORD        MIX PCPN  32  31  99 SE14      29.86F VSB 3/4
WAUSAU         LGT SNOW  33  31  92 S13       29.90F FOG
MOSINEE        LGT SNOW  32  32 100 S16G22    29.92F
MARSHFIELD     LGT SNOW  33  32  96 S15       29.90F VSB 1
WISC RAPIDS    CLOUDY    35  31  85 S9        29.94F FOG
STEVENS POINT  CLOUDY    33  31  92 S7        29.94F FOG
WAUPACA        CLOUDY    37  32  84 SE9       29.99F HAZE
SHAWANO        CLOUDY    36  32  86 S8        29.99F FOG
CLINTONVILLE   CLOUDY    34  32  93 S9        29.99F FOG
$$

WIZ038-039-048-051-212100-
FOX VALLEY

CITY           SKY/WX    TMP DP  RH WIND       PRES   REMARKS
NWS GREEN BAY  CLOUDY    35  32  88 S8        30.02F FOG
APPLETON       CLOUDY    37  34  87 S13       30.01F FOG
OSHKOSH        CLOUDY    35  31  85 S12       30.01F FOG
FOND DU LAC    CLOUDY    36  31  82 S13       30.01F
$$

WIZ022-050-052-212100-
EAST CENTRAL WISCONSIN

CITY           SKY/WX    TMP DP  RH WIND       PRES   REMARKS
STURGEON BAY   CLOUDY    36  30  80 S13G21    30.04F
MANITOWOC      CLOUDY    37  34  89 S15G23    30.04F
SHEBOYGAN      CLOUDY    36  31  82 S10       30.04F
$$

LMZ563-521-522-541>543-212100-
LAKESHORE

STATION/POSITION TIME  TEMP    WIND        PRES    VSBY  WAVE
                       AIR SEA DIR/SP/G                  HT/PER
                 (UTC) (F)     (DEG/KT/KT) (MB)    (MI)  (FT/S)
SHEBOYGAN LKSHOR 2000   37 34  180/ 22/ 24 1018.1F
KEWAUNEE LKSHORE 2000   36     190/ 11/ 14 1016.6F
ALGOMA MARINA    1900          220/ 17/ 19   N/A
NORTHPORT PIER   2000   37     160/  7/ 16 1017.3F
SISTER BAY LKSHO 2000          180/ 17/ 23   N/A
STURGEON BAY CG  1900   36     190/  9     1019.2      6   2
CHAMBERS ISLAND  2000   37     150/  8/ 14 1016.9F
MENOMINEE LKSHOR 2000   35     170/ 10/ 12 1017.3F
$$




U.S. Dept. of Commerce
NOAA National Weather Service
1325 East West Highway
Silver Spring, MD 20910
E-mail: w-nws.webmaster@noaa.gov
Page last modified: May 16, 2007
NATIONAL WEATHER SERVICE: for Safety, for Work, for Fun - FOR LIFE